DW2973 Weather Reports


time (UTC)temp
C
wind
direction
speed
KPH
gust
KPH
rain 1hr
cm
rain 24hr
cm
rain mn
cm
humidity
%
barometer
mb
20260509091539 16 44 0.0 0.0 0.00 0.00 0.00 23 1022.3
20260509090037 17 149 0.0 0.0 0.00 0.00 0.00 25 1022.4
20260509084525 16 115 0.0 0.0 0.00 0.00 0.00 31 1022.4
20260509083022 15 113 0.0 0.0 0.00 0.00 0.00 31 1022.4
20260509081525 15 91 0.0 0.0 0.00 0.00 0.00 32 1022.5
20260509080016 13 117 0.0 0.0 0.00 0.00 0.00 38 1022.6
20260509074512 12 116 0.0 0.0 0.00 0.00 0.00 41 1022.7
20260509073007 11 109 0.0 0.0 0.00 0.00 0.00 43 1022.7
20260509071505 11 116 0.0 0.0 0.00 0.00 0.00 49 1022.8
20260509070009 10 116 0.0 0.0 0.00 0.00 0.00 48 1022.9
20260509064501 10 137 0.0 0.0 0.00 0.00 0.00 53 1022.9
20260509063059 10 137 0.0 0.0 0.00 0.00 0.00 56 1023.0
20260509061556 10 137 0.0 0.0 0.00 0.00 0.00 62 1022.9
20260509060052 7 186 0.0 0.0 0.00 0.00 0.00 70 1022.9
20260509054558 6 190 0.0 0.0 0.00 0.00 0.00 73 1023.0
20260509053048 5 190 0.0 0.0 0.00 0.00 0.00 75 1023.0
20260509051542 5 194 0.0 0.0 0.00 0.00 0.00 77 1022.9
20260509050042 3 194 0.0 0.0 0.00 0.00 0.00 79 1023.1
20260509044541 3 194 0.0 0.0 0.00 0.00 0.00 80 1023.0
20260509043040 3 194 0.0 0.0 0.00 0.00 0.00 81 1023.1
20260509041608 3 194 0.0 0.0 0.00 0.00 0.00 80 1023.0
20260509040040 2 194 0.0 0.0 0.00 0.00 0.00 79 1022.9
20260509034538 2 194 0.0 0.0 0.00 0.00 0.00 76 1023.1
20260509033038 2 194 0.0 0.0 0.00 0.00 0.00 74 1023.1
20260509031538 2 194 0.0 0.0 0.00 0.00 0.00 75 1023.1
20260509030035 2 194 0.0 0.0 0.00 0.00 0.00 73 1023.2
20260509024534 2 194 0.0 0.0 0.00 0.00 0.00 73 1023.2
20260509023034 2 194 0.0 0.0 0.00 0.00 0.00 74 1023.2
20260509021536 2 194 0.0 0.0 0.00 0.00 0.00 76 1023.4
20260509020043 2 194 0.0 0.0 0.00 0.00 0.00 76 1023.3
20260509014531 2 194 0.0 0.0 0.00 0.00 0.00 74 1023.5
20260509013037 3 194 0.0 0.0 0.00 0.00 0.00 73 1023.6
20260509011525 3 194 0.0 0.0 0.00 0.00 0.00 72 1023.6
20260509010024 3 194 0.0 0.0 0.00 0.00 0.00 72 1023.7
20260509004522 3 194 0.0 0.0 0.00 0.00 0.00 71 1023.7
20260509003020 3 194 0.0 0.0 0.00 0.00 0.00 71 1023.8
20260509001519 3 194 0.0 0.0 0.00 0.00 0.00 73 1023.9
20260509000018 3 194 0.0 0.0 0.00 0.00 0.00 73 1023.9
20260508234516 4 194 0.0 0.0 0.00 0.00 0.00 75 1024.0
20260508233017 4 194 0.0 0.0 0.00 0.00 0.00 77 1024.1
20260508231512 5 194 0.0 0.0 0.00 0.00 0.00 79 1024.1
20260508230010 5 194 0.0 0.0 0.00 0.00 0.00 79 1024.0
20260508224514 5 194 0.0 0.0 0.00 0.00 0.00 76 1024.1
20260508223006 5 194 0.0 0.0 0.00 0.00 0.00 74 1024.0
20260508221507 5 194 0.0 0.0 0.00 0.00 0.00 74 1023.9
20260508220003 5 194 0.0 0.0 0.00 0.00 0.00 73 1023.9
20260508214511 5 194 0.0 0.0 0.00 0.00 0.00 73 1024.0
20260508213002 6 194 0.0 0.0 0.00 0.00 0.00 72 1024.0
20260508211600 6 194 0.0 0.0 0.00 0.00 0.00 71 1023.8
20260508210100 6 194 0.0 0.0 0.00 0.00 0.00 69 1023.7
20260508204601 7 194 0.0 0.0 0.00 0.00 0.00 67 1023.7
20260508203057 7 194 0.0 0.0 0.00 0.00 0.00 65 1023.5
20260508201556 7 194 0.0 0.0 0.00 0.00 0.00 63 1023.4
20260508200110 8 194 0.0 0.0 0.00 0.00 0.00 62 1023.3
20260508194555 8 194 0.0 0.0 0.00 0.00 0.00 61 1023.2
20260508193132 10 194 0.0 0.0 0.00 0.00 0.00 60 1023.0
20260508191554 10 194 0.0 0.0 0.00 0.00 0.00 59 1022.8
20260508190054 11 194 0.0 0.0 0.00 0.00 0.00 56 1022.8
20260508184556 12 194 0.0 0.0 0.00 0.00 0.00 52 1022.6
20260508183108 13 194 0.0 0.0 0.00 0.00 0.00 50 1022.5
20260508181602 13 194 0.0 0.0 0.00 0.00 0.00 48 1022.4
20260508180048 13 191 0.0 0.0 0.00 0.00 0.00 45 1022.2
20260508174551 14 192 0.0 0.0 0.00 0.00 0.00 43 1022.2
20260508173046 15 237 0.0 0.0 0.00 0.00 0.00 40 1022.1
20260508171547 16 236 0.0 0.0 0.00 0.00 0.00 36 1022.1
20260508170053 17 173 0.0 0.0 0.00 0.00 0.00 33 1021.9
20260508164548 17 191 0.0 0.0 0.00 0.00 0.00 33 1021.8
20260508163045 17 175 0.0 0.0 0.00 0.00 0.00 32 1022.0
20260508161546 18 74 0.0 0.0 0.00 0.00 0.00 27 1021.8
20260508160044 18 250 0.0 0.0 0.00 0.00 0.00 29 1021.8
20260508154605 18 172 0.0 0.0 0.00 0.00 0.00 26 1021.7
20260508153043 18 155 0.0 0.0 0.00 0.00 0.00 24 1021.8
20260508151540 18 142 0.0 0.0 0.00 0.00 0.00 25 1021.7
20260508150040 18 153 0.0 0.0 0.00 0.00 0.00 25 1021.8
20260508144549 18 202 0.0 0.0 0.00 0.00 0.00 24 1022.0
20260508143036 18 133 0.0 0.0 0.00 0.00 0.00 28 1022.1
20260508141536 18 132 0.0 0.0 0.00 0.00 0.00 28 1022.0
20260508140036 19 138 0.0 0.0 0.00 0.00 0.00 28 1021.9
20260508134545 18 141 0.0 0.0 0.00 0.00 0.00 29 1022.1
20260508133046 18 157 0.0 0.0 0.00 0.00 0.00 37 1022.1
20260508131532 17 241 3.2 0.0 0.00 0.00 0.00 36 1022.1
20260508130034 18 99 0.0 0.0 0.00 0.00 0.00 33 1022.3
20260508124536 18 194 0.0 0.0 0.00 0.00 0.00 35 1022.1
20260508123043 18 264 0.0 0.0 0.00 0.00 0.00 34 1022.2
20260508121530 18 184 1.6 0.0 0.00 0.00 0.00 35 1022.2
20260508120027 17 204 0.0 0.0 0.00 0.00 0.00 35 1022.5
20260508114525 17 238 1.6 0.0 0.00 0.00 0.00 35 1022.3
20260508113024 17 231 0.0 0.0 0.00 0.00 0.00 34 1022.5
20260508111532 17 236 3.2 0.0 0.00 0.00 0.00 35 1022.5
20260508110025 17 144 1.6 0.0 0.00 0.00 0.00 36 1022.5
20260508104522 17 215 1.6 0.0 0.00 0.00 0.00 36 1022.5
20260508103022 17 196 0.0 0.0 0.00 0.00 0.00 39 1022.4
20260508101519 17 206 1.6 0.0 0.00 0.00 0.00 43 1022.3
20260508100019 17 182 1.6 0.0 0.00 0.00 0.00 44 1022.3
20260508094517 17 206 1.6 0.0 0.00 0.00 0.00 49 1022.4
20260508093018 17 192 0.0 0.0 0.00 0.00 0.00 48 1022.2